User: anonymous   Login
Location: Hylvaty SDH
(49.9612°N, 16.4057°E)
Time: 00:59:01
(UTC+02:00)
Language:

S-56A Canister/Altair - Orbit

View from above orbital plane
View from above orbital plane
View from above satellite
View from above satellite

Ground track
Ground track

The orbit data is extracted from the following two-line orbital elements,

1    82U 61004B   20224.07087493 -.00000049 +00000-0 +13312-5 0  9998
2    82 038.8606 356.1530 1174470 347.1611 010.1431 12.26061721814510
Epoch (UTC): 11 August 2020 01:42:03
Eccentricity: 0.1174470
inclination: 38.8606°
perigee height: 633 km
apogee height: 2499 km
right ascension of ascending node: 356.1530°
argument of perigee: 347.1611°
revolutions per day: 12.26061721
mean anomaly at epoch: 10.1431°
orbit number at epoch: 81451

The dashed part of the orbit path shows where the satellite is in the earth's shadow,  

DLR